Weather History for KLVK - March, 2014

Change the Weather History Date:

Friday, March 7, 2014

  Actual Average Record
Temperature  
Mean Temperature 56 °F 53 °F  
Max Temperature 70 °F 64 °F 82 °F (1972)
Min Temperature 42 °F 42 °F 25 °F (1964)
Degree Days  
Heating Degree Days 9 12  
Month to date heating degree days 56 84  
Since 1 July heating degree days 1571 2091  
Cooling Degree Days 0 0  
Month to date cooling degree days 0 0  
Year to date cooling degree days 0 0  
Growing Degree Days 6 (Base 50)    
Moisture  
Dew Point 44 °F    
Average Humidity 68    
Maximum Humidity 100    
Minimum Humidity 36    
Precipitation  
Precipitation 0.00 in 0.09 in 0.91 in (1935)
Month to date precipitation 0.22 0.65  
Year to date precipitation 2.85 6.69  
Since 1 July precipitation 5.23  
Sea Level Pressure  
Sea Level Pressure 30.14 in    
Wind  
Wind Speed 4 mph (North)    
Max Wind Speed 15 mph    
Max Gust Speed 23 mph    
Visibility 10 miles    
Events      
T = Trace of Precipitation, MM = Missing Value Source: NWS Daily Summary

Daily Weather History Graph

Daily Weather History Graph

Search for Another Location

Airport or City:

Trip Planner

Search our weather history database for the weather conditions in past years. The results will help you decide how hot, cold, wet, or windy it might be!

Date:

Astronomy

Mar. 07, 2014 Rise Set
Actual Time 6:30 AM PST 6:06 PM PST
Civil Twilight 6:03 AM PST 6:33 PM PST
Nautical Twilight 5:33 AM PST 7:03 PM PST
Astronomical Twilight 5:03 AM PST 7:34 PM PST
Moon 10:34 AM PST (3/7) 12:10 AM PST (3/7)
Length of Visible Light 12h 29m
Length of Day
11h 36m
Waxing Crescent, 43% of the Moon is Illuminated
Mar 7
Waxing Crescent
Mar 8
First Quarter
Mar 16
Full
Mar 23
Last Quarter
Mar 30
New

Hourly Weather History & Observations

Time (PST) Temp. Windchill Dew Point Humidity Pressure Visibility Wind Dir Wind Speed Gust Speed Precip Events Conditions
12:53 AM 48.9 °F - 46.9 °F 93% 30.17 in 10.0 mi Calm Calm - N/A   Clear
1:53 AM 46.9 °F - 45.0 °F 93% 30.17 in 10.0 mi Calm Calm - N/A   Clear
2:53 AM 46.9 °F - 44.1 °F 90% 30.16 in 10.0 mi Calm Calm - N/A   Clear
3:53 AM 46.0 °F 44.8 °F 43.0 °F 89% 30.15 in 10.0 mi East 3.5 mph - N/A   Clear
4:53 AM 43.0 °F 40.3 °F 42.1 °F 97% 30.15 in 9.0 mi East 4.6 mph - N/A   Clear
5:53 AM 45.0 °F 42.6 °F 43.0 °F 93% 30.16 in 10.0 mi NE 4.6 mph - N/A   Clear
6:53 AM 44.1 °F - 42.1 °F 93% - 9.0 mi Calm Calm - N/A   Clear
7:53 AM 48.0 °F - 45.0 °F 89% 30.17 in 10.0 mi Calm Calm - N/A   Clear
8:53 AM 51.1 °F - 46.9 °F 86% 30.19 in 10.0 mi SW 3.5 mph - N/A   Clear
9:53 AM 55.9 °F - 46.9 °F 72% 30.17 in 10.0 mi Calm Calm - N/A   Clear
10:53 AM 61.0 °F - 45.0 °F 56% 30.16 in 10.0 mi Calm Calm - N/A   Clear
11:53 AM 64.9 °F - 42.1 °F 43% 30.15 in 10.0 mi NNE 12.7 mph 16.1 mph N/A   Clear
12:53 PM 66.9 °F - 44.1 °F 44% 30.13 in 10.0 mi ENE 10.4 mph - N/A   Clear
1:15 PM 66.2 °F - 42.8 °F 43% 30.12 in 10.0 mi ENE 6.9 mph - N/A   Clear
1:53 PM 68.0 °F - 41.0 °F 37% 30.11 in 10.0 mi NNW 6.9 mph - N/A   Clear
2:53 PM 69.1 °F - 41.0 °F 36% 30.10 in 10.0 mi Variable 3.5 mph - N/A   Clear
3:53 PM 68.0 °F - 45.0 °F 43% 30.09 in 10.0 mi West 10.4 mph - N/A   Clear
4:53 PM 66.9 °F - 45.0 °F 45% 30.09 in 10.0 mi WNW 8.1 mph - N/A   Clear
5:53 PM 64.0 °F - 44.1 °F 48% 30.09 in 10.0 mi WNW 5.8 mph - N/A   Clear
6:53 PM 60.1 °F - 46.0 °F 60% 30.11 in 10.0 mi NW 5.8 mph - N/A   Clear
7:53 PM 55.9 °F - 46.9 °F 72% 30.12 in 10.0 mi West 3.5 mph - N/A   Clear
8:53 PM 55.0 °F - 46.9 °F 74% 30.14 in 10.0 mi Calm Calm - N/A   Clear
9:53 PM 54.0 °F - 46.9 °F 77% 30.13 in 10.0 mi Calm Calm - N/A   Clear
10:53 PM 52.0 °F - 46.0 °F 80% 30.14 in 10.0 mi Calm Calm - N/A   Clear
11:53 PM 48.0 °F - 44.1 °F 86% 30.14 in 10.0 mi Calm Calm - N/A   Clear